星链-37116(STARLINK-37116)

导读

STARLINK-37116(NORAD编号68213)是美国太空探索技术公司(SpaceX)星链(Starlink)星座中的一颗低轨卫星,隶属于SpaceX第二代星链组网计划,旨在为全球提供高速低延迟卫星互联网服务。 该卫星于2025年12月出现异常,轨道高度骤降约4000米,推测因内部爆炸解体,产生数十块空间碎片,已与地面失联。SpaceX称卫星大体保持完整,目前处于翻滚状态,预计会在几周内再入大气层烧毁,正联合相关机构监测碎片,暂无重大碰撞风险。

Basic Information
目录编号:
68213
目录名称:
STARLINK-37116
国际标识:
2026-053G
轨道中心:
EARTH
卫星名称:
星链-37116
卫星全名:
星链-37116(STARLINK-37116)
卫星状态:
在轨 (已飞行171 天)
发射日期:
2026-03-17 UTC
国别 :
美国 (US)
星等 :
--
Orbit Information
数据来源 国际轨道数据
星历时间: 2026-09-03T11:52:33+0800
1天前
查看轨道信息
半长轴: 6843.704km
偏心率: 0.0001726
轨道倾角: 97.284°
近地点辐角 88.568°
升交点赤经 120.146°
平近点角 271.577°
近地点: 464.385km
远地点: 466.749km
周期: 93.907分钟
每日圈数: 15.334372
Detailed Information
固有亮度:
5
最大亮度:
2.5
卫星平台:
Starlink V1.0
覆盖范围:
全球
运营商:
太空探索技术公司
运营商所在国:
美国
制造商(研发单位):
太空探索技术公司
制造商所在国:
美国
使用方式:
暂无
Satellite Introduction
Starlink 计划是 SpaceX 推出的全球卫星互联网项目,通过发射低轨道卫星,为全球尤其是偏远地区提供高速、低延迟的互联网服务。自 2019 年起,Starlink 已部署数千颗卫星,旨在缩小全球数字鸿沟,推动互联网普及。该项目还为军事、航空等行业提供通信支持,带来广泛经济效益。
2D Orbit Map
3D Orbit Map
Orbit Altitude Analysis Chart
Orbit Inclination Analysis Chart
Orbit Comprehensive Analysis Chart
View Comprehensive Chart
Conjunction Data List
Event ID Objects TCA Miss Dist (km) Collision Risk Probability Collision Risk Index (CRI) Action
CDM_260905-141206-519406-821321
2026-09-05T
14:12:46+0000
0.308 km
远距离
1.354854E-4 高风险 0.78
CDM_260905-115106-519406-821321
2026-09-05T
11:51:49+0000
0.483 km
远距离
4.293599E-5 中风险 0.68
CDM_260905-123806-519406-821321
2026-09-05T
12:38:48+0000
0.805 km
远距离
8.406342E-6 低风险 0.53
CDM_260905-101706-519406-821321
2026-09-05T
10:17:52+0000
0.877 km
远距离
6.293537E-6 低风险 0.51
CDM_260905-132506-519406-821321
2026-09-05T
13:25:47+0000
1.017 km
极远距离
3.804724E-6 低风险 0.47
CDM_260904-231006-821306-959721
2026-09-04T
23:10:09+0000
1.899 km
极远距离
2.91362E-6 低风险 0.44
CDM_260905-100804-810406-821321
2026-09-05T
10:08:05+0000
2.081 km
极远距离
2.139926E-6 低风险 0.42
CDM_260831-070305-481006-821321
2026-08-31T
07:03:48+0000
2.341 km
极远距离
1.980899E-6 低风险 0.41
CDM_260905-100704-605406-821321
2026-09-05T
10:07:30+0000
2.777 km
极远距离
1.394104E-6 低风险 0.38
CDM_260905-110406-519406-821321
2026-09-05T
11:04:50+0000
1.589 km
极远距离
9.620354E-7 极低风险 0.35